Location: Croagnes
(43.9363°N, 5.3265°E)
Time: 02:44:45
(UTC+00:00)

Cosmos 468 Rocket - Pass Details

Date: 06 June 2020
Orbit: 744 x 780 km, 74.0° (Epoch: 09 July)

Event Time Altitude Azimuth Distance (km) Brightness Sun altitude
Exits shadow 23:14:14 42° 115° (ESE) 1,051 4.4 -23.1°
Maximum altitude 23:14:36 43° 103° (ESE) 1,041 4.5 -23.1°
Drops below altitude 10° 23:19:25 10° 33° (NNE) 2,268 7.1 -23.2°
Sets 23:21:53 0° 27° (NNE) 3,199 8.2 -23.2°
